Location: Sperry Observatory
(40.6664°N, 74.3236°W)
Time: 12:45:21
(UTC-04:00)

Amateur Radio Satellites - All Passes

Search period start: 25 October 2014 12:15
Search period end: 26 October 2014 12:15
Location: Sperry Observatory, 40.6664°N, 74.3236°W

Satellite Date Start Highest point End Downlink Frequencies (MHz)
Time Altitude Azimuth
ISS 25 Oct 12:22:16 12:25:23 38° 137° (SE) 12:28:30 145.800 FM
Sapphire 25 Oct 12:31:03 12:36:03 36° 53° (NE) 12:41:01 437.095 MHz 1200 baud AX-25 AFSK
Oscar 19 25 Oct 12:33:46 12:37:33 21° 64° (ENE) 12:41:21 437.125 CW, 437.150 USB
JAS-1B 25 Oct 12:40:24 12:44:51 23° 63° (ENE) 12:49:12 435.800 - 435.900 CW/SSB
ZACube-1 25 Oct 12:42:58 12:44:57 13° 297° (WNW) 12:46:54 437.345 MHz
Oscar 10/S400 25 Oct 12:44:38 13:02:53 30° 151° (SSE) 13:19:57 145.825 - 145.975 CW/USB, Beacon 145.810 USB
PCSat 25 Oct 12:53:21 12:58:43 57° 57° (ENE) 13:04:02 145.825 MHz
AO-27 25 Oct 12:54:15 12:56:56 14° 60° (ENE) 12:59:37 436.795 MHz FM
SO-50 25 Oct 12:54:34 12:59:00 64° 119° (ESE) 13:03:34 436.795 FM
KITSAT 1 25 Oct 12:56:16 13:04:20 73° 302° (WNW) 13:12:26 435.175 FM
AO-Echo 25 Oct 13:09:54 13:13:41 23° 65° (ENE) 13:17:35 ?
Oscar 16 25 Oct 13:18:07 13:23:08 55° 72° (ENE) 13:28:10 437.025 USB, Beacon 2401.1428
Uribyol 2 25 Oct 13:39:05 13:43:51 37° 69° (ENE) 13:48:38 436.500 FM
ITAMSAT 1 25 Oct 13:45:12 13:50:01 40° 69° (ENE) 13:54:53 435.822 SSB
ISS 25 Oct 13:59:09 14:02:07 29° 334° (NNW) 14:05:06 145.800 FM
Gurwin Techsat 1B 25 Oct 14:08:47 14:13:33 35° 68° (ENE) 14:18:20 435.225 FM
Oscar 19 25 Oct 14:11:35 14:16:32 48° 260° (W) 14:21:31 437.125 CW, 437.150 USB
Sapphire 25 Oct 14:14:35 14:19:24 33° 250° (WSW) 14:24:11 437.095 MHz 1200 baud AX-25 AFSK
UOSAT-12 25 Oct 14:15:09 14:19:25 39° 115° (ESE) 14:23:48 437.025 FM, 437.400 FM
TMSAT-1 25 Oct 14:19:43 14:24:23 33° 68° (ENE) 14:29:04 436.925 FM
AO-7 25 Oct 14:27:30 14:33:11 21° 52° (NE) 14:38:51 29.400 - 29.500 MHz
JAS-1B 25 Oct 14:29:34 14:35:18 46° 260° (W) 14:40:45 435.800 - 435.900 CW/SSB
AO-27 25 Oct 14:30:33 14:35:46 77° 257° (WSW) 14:41:01 436.795 MHz FM
SO-50 25 Oct 14:36:50 14:40:00 18° 318° (NW) 14:43:14 436.795 FM
PCSat 25 Oct 14:37:51 14:41:38 20° 255° (WSW) 14:45:25 145.825 MHz
AO-Echo 25 Oct 14:47:34 14:52:10 41° 262° (W) 14:56:56 ?
KITSAT 1 25 Oct 14:55:25 15:01:14 21° 326° (NW) 15:07:04 435.175 FM
Uosat F 25 Oct 14:58:19 14:59:35 11° 58° (ENE) 15:00:51 435.120 FM
Oscar 16 25 Oct 14:59:26 15:02:48 17° 268° (W) 15:06:12 437.025 USB, Beacon 2401.1428
Uribyol 2 25 Oct 15:19:02 15:23:22 27° 265° (W) 15:27:45 436.500 FM
ITAMSAT 1 25 Oct 15:25:24 15:29:37 25° 265° (W) 15:33:52 435.822 SSB
ISS 25 Oct 15:37:57 15:39:38 13° 354° (N) 15:41:20 145.800 FM
Saudisat 1A 25 Oct 15:39:46 15:43:37 28° 48° (NE) 15:47:27 436.775 MHz
Gurwin Techsat 1B 25 Oct 15:48:57 15:53:31 29° 265° (W) 15:58:07 435.225 FM
UOSAT-12 25 Oct 15:55:42 15:59:40 27° 313° (NW) 16:03:42 437.025 FM, 437.400 FM
TMSAT-1 25 Oct 15:59:35 16:04:15 31° 264° (W) 16:08:57 436.925 FM
AO-40 25 Oct 16:06:49 23:01:14 41° 184° (S) 04:45:12 Beacon 2401.320
AO-7 25 Oct 16:16:35 16:24:52 88° 71° (ENE) 16:33:12 29.400 - 29.500 MHz
Uosat F 25 Oct 16:32:31 16:37:33 86° 75° (ENE) 16:42:37 435.120 FM
JAS-2 25 Oct 17:06:45 17:12:26 48° 68° (ENE) 17:18:53 435.800 - 435.900 CW/SSB, 435.910 FM
ISS 25 Oct 17:15:11 17:17:23 16° 15° (NNE) 17:19:35 145.800 FM
Hamsat 25 Oct 17:15:27 17:19:02 28° 70° (ENE) 17:22:36 145.90 MHz
Saudisat 1A 25 Oct 17:19:14 17:23:11 32° 245° (WSW) 17:27:07 436.775 MHz
AO-7 25 Oct 18:13:22 18:18:36 18° 269° (W) 18:23:53 29.400 - 29.500 MHz
Uosat F 25 Oct 18:16:43 18:16:57 10° 271° (W) 18:17:12 435.120 FM
OPAL 25 Oct 18:17:13 18:22:11 72° 105° (ESE) 18:27:06 ?
STRAND 1 25 Oct 18:26:59 18:28:20 11° 89° (E) 18:29:42 ?
ISS 25 Oct 18:51:19 18:54:37 58° 33° (NNE) 18:57:55 145.800 FM
Hamsat 25 Oct 18:51:34 18:54:57 23° 265° (W) 18:58:20 145.90 MHz
JAS-2 25 Oct 18:52:52 18:57:49 27° 269° (W) 19:03:19 435.800 - 435.900 CW/SSB, 435.910 FM
KITSAT 1 25 Oct 18:55:30 19:00:19 17° 28° (NNE) 19:05:07 435.175 FM
SO-67 25 Oct 19:29:22 19:32:45 59° 260° (W) 19:36:10 435.3500 MHz FM
SO-50 25 Oct 19:48:28 19:49:26 11° 34° (NE) 19:50:25 436.795 FM
HO-68 25 Oct 19:57:41 20:03:52 33° 62° (ENE) 20:10:04 435.675 MHz FM
OPAL 25 Oct 19:57:52 20:00:27 14° 302° (WNW) 20:03:02 ?
STRAND 1 25 Oct 20:02:58 20:08:09 83° 285° (WNW) 20:13:17 ?
ISS 25 Oct 20:28:53 20:31:00 16° 229° (SW) 20:33:05 145.800 FM
UKube-1 25 Oct 20:30:38 20:32:35 13° 62° (ENE) 20:34:32 145.840 MHz, 145.915 MHz
KITSAT 1 25 Oct 20:49:55 20:57:49 53° 53° (NE) 21:05:39 435.175 FM
RS-15 25 Oct 21:04:22 21:13:32 32° 105° (ESE) 21:22:34 29.354 - 29.394 USB, Beacon 29.352 USB
Oscar 11 25 Oct 21:09:18 21:12:59 28° 69° (ENE) 21:16:41 145.825 FM, Beacon 2401.500 USB
FUNcube-1 25 Oct 21:11:13 21:13:32 14° 64° (ENE) 21:15:51 145.950 - 145.970 MHz USB
SO-50 25 Oct 21:26:19 21:31:04 54° 54° (NE) 21:35:51 436.795 FM
HO-68 25 Oct 21:44:24 21:51:17 50° 260° (W) 21:58:14 435.675 MHz FM
STRAND 1 25 Oct 21:45:14 21:46:29 11° 302° (WNW) 21:47:43 ?
ZACube-1 25 Oct 22:00:34 22:04:56 44° 72° (ENE) 22:09:14 437.345 MHz
UKube-1 25 Oct 22:03:56 22:08:14 62° 258° (WSW) 22:12:35 145.840 MHz, 145.915 MHz
MaSat-1 25 Oct 22:40:22 22:42:36 14° 106° (ESE) 22:44:44 437.345 MHz
FUNcube-1 25 Oct 22:44:53 22:49:25 62° 259° (W) 22:53:54 145.950 - 145.970 MHz USB
UOSAT-12 25 Oct 22:44:57 22:49:14 33° 49° (NE) 22:53:27 437.025 FM, 437.400 FM
Oscar 11 25 Oct 22:45:34 22:49:07 25° 265° (W) 22:52:42 145.825 FM, Beacon 2401.500 USB
KITSAT 1 25 Oct 22:45:47 22:52:54 36° 252° (WSW) 23:00:01 435.175 FM
SO-50 25 Oct 23:07:52 23:11:14 19° 250° (WSW) 23:14:37 436.795 FM
RS-15 25 Oct 23:14:00 23:24:57 70° 306° (NW) 23:35:54 29.354 - 29.394 USB, Beacon 29.352 USB
ZACube-1 25 Oct 23:38:26 23:41:30 18° 267° (W) 23:44:32 437.345 MHz
MaSat-1 26 Oct 00:14:00 00:17:56 44° 298° (WNW) 00:21:31 437.345 MHz
UOSAT-12 26 Oct 00:25:12 00:29:18 30° 247° (WSW) 00:33:20 437.025 FM, 437.400 FM
Oscar 16 26 Oct 01:31:03 01:34:43 20° 93° (E) 01:38:23 437.025 USB, Beacon 2401.1428
RS-15 26 Oct 01:31:06 01:39:44 26° 335° (NNW) 01:48:29 29.354 - 29.394 USB, Beacon 29.352 USB
Oscar 10/S400 26 Oct 01:52:30 02:43:52 16° 247° (WSW) 04:21:25 145.825 - 145.975 CW/USB, Beacon 145.810 USB
Uribyol 2 26 Oct 01:53:52 01:56:14 13° 90° (E) 01:58:35 436.500 FM
ITAMSAT 1 26 Oct 01:59:53 02:02:38 14° 90° (E) 02:05:21 435.822 SSB
JAS-1B 26 Oct 02:11:17 02:17:52 47° 100° (E) 02:25:38 435.800 - 435.900 CW/SSB
Oscar 19 26 Oct 02:23:15 02:28:20 61° 101° (ESE) 02:33:23 437.125 CW, 437.150 USB
Gurwin Techsat 1B 26 Oct 02:26:44 02:29:23 14° 90° (E) 02:32:01 435.225 FM
TMSAT-1 26 Oct 02:37:32 02:39:46 13° 89° (E) 02:42:00 436.925 FM
AO-27 26 Oct 02:44:09 02:49:03 39° 98° (E) 02:53:54 436.795 MHz FM
AO-Echo 26 Oct 02:54:28 02:59:47 66° 101° (ESE) 03:05:03 ?
Oscar 16 26 Oct 03:09:24 03:14:19 48° 289° (WNW) 03:19:13 437.025 USB, Beacon 2401.1428
Sapphire 26 Oct 03:12:50 03:17:36 33° 110° (ESE) 03:22:25 437.095 MHz 1200 baud AX-25 AFSK
Uribyol 2 26 Oct 03:31:01 03:36:14 73° 286° (WNW) 03:41:23 436.500 FM
PCSat 26 Oct 03:34:37 03:39:53 56° 114° (ESE) 03:45:11 145.825 MHz
ITAMSAT 1 26 Oct 03:37:23 03:42:36 68° 287° (WNW) 03:47:45 435.822 SSB
RS-15 26 Oct 03:49:51 03:57:31 20° 11° (NNE) 04:05:19 29.354 - 29.394 USB, Beacon 29.352 USB
OPAL 26 Oct 03:55:27 03:58:36 17° 60° (ENE) 04:01:43 ?
JAS-1B 26 Oct 04:02:27 04:08:20 34° 293° (WNW) 04:15:09 435.800 - 435.900 CW/SSB
Oscar 19 26 Oct 04:03:58 04:07:10 17° 298° (WNW) 04:10:21 437.125 CW, 437.150 USB
Gurwin Techsat 1B 26 Oct 04:04:33 04:09:51 72° 286° (WNW) 04:15:08 435.225 FM
TMSAT-1 26 Oct 04:14:56 04:20:15 77° 285° (WNW) 04:25:32 436.925 FM
AO-7 26 Oct 04:19:08 04:26:14 30° 96° (E) 04:33:18 29.400 - 29.500 MHz
AO-27 26 Oct 04:24:05 04:28:21 26° 295° (WNW) 04:32:36 436.795 MHz FM
AO-Echo 26 Oct 04:34:39 04:37:58 17° 298° (WNW) 04:41:18 ?
Uosat F 26 Oct 04:41:06 04:45:22 27° 96° (E) 04:49:36 435.120 FM
Sapphire 26 Oct 04:56:01 05:00:57 36° 307° (NW) 05:05:57 437.095 MHz 1200 baud AX-25 AFSK
PCSat 26 Oct 05:19:21 05:23:39 23° 313° (NW) 05:27:58 145.825 MHz
OPAL 26 Oct 05:31:50 05:36:57 66° 256° (WSW) 05:42:02 ?
STRAND 1 26 Oct 05:41:42 05:45:01 18° 62° (ENE) 05:48:20 ?
TMSAT-1 26 Oct 05:58:29 05:59:15 10° 303° (WNW) 06:00:01 436.925 FM
JAS-2 26 Oct 06:00:10 06:07:45 51° 98° (E) 06:15:13 435.800 - 435.900 CW/SSB, 435.910 FM
RS-15 26 Oct 06:03:20 06:13:52 45° 44° (NE) 06:24:45 29.354 - 29.394 USB, Beacon 29.352 USB
AO-7 26 Oct 06:11:16 06:19:24 60° 294° (WNW) 06:27:31 29.400 - 29.500 MHz
Uosat F 26 Oct 06:19:37 06:24:10 35° 292° (WNW) 06:28:42 435.120 FM
Hamsat 26 Oct 06:36:22 06:40:31 59° 100° (E) 06:44:41 145.90 MHz
STRAND 1 26 Oct 07:18:39 07:23:42 60° 259° (W) 07:28:48 ?
PANSAT 26 Oct 07:23:14 07:24:14 11° 170° (S) 07:25:15 not established
Saudisat 1A 26 Oct 07:24:36 07:28:57 69° 120° (ESE) 07:33:20 436.775 MHz
JAS-2 26 Oct 07:45:31 07:52:27 37° 295° (WNW) 07:59:23 435.800 - 435.900 CW/SSB, 435.910 FM
AO-7 26 Oct 08:06:48 08:10:29 14° 315° (NW) 08:14:10 29.400 - 29.500 MHz
Hamsat 26 Oct 08:14:16 08:15:58 12° 296° (WNW) 08:17:41 145.90 MHz
RS-15 26 Oct 08:15:46 08:26:40 60° 246° (WSW) 08:38:03 29.354 - 29.394 USB, Beacon 29.352 USB
MaSat-1 26 Oct 08:25:28 08:26:58 14° 54° (NE) 08:28:23 437.345 MHz
SO-67 26 Oct 08:25:44 08:29:03 46° 285° (WNW) 08:32:22 435.3500 MHz FM
PANSAT 26 Oct 09:01:48 09:03:37 13° 183° (S) 09:05:27 not established
Saudisat 1A 26 Oct 09:06:10 09:08:58 16° 318° (NW) 09:11:48 436.775 MHz
HO-68 26 Oct 09:12:27 09:18:51 33° 97° (E) 09:25:11 435.675 MHz FM
UKube-1 26 Oct 09:53:01 09:56:27 22° 95° (E) 09:59:51 145.840 MHz, 145.915 MHz
MaSat-1 26 Oct 10:01:00 10:02:23 14° 254° (WSW) 10:03:44 437.345 MHz
Oscar 11 26 Oct 10:32:30 10:36:46 59° 101° (E) 10:41:00 145.825 FM, Beacon 2401.500 USB
RS-15 26 Oct 10:34:53 10:36:37 10° 266° (W) 10:38:22 29.354 - 29.394 USB, Beacon 29.352 USB
FUNcube-1 26 Oct 10:34:59 10:38:29 25° 95° (E) 10:41:54 145.950 - 145.970 MHz USB
HO-68 26 Oct 10:59:52 11:06:40 47° 294° (WNW) 11:13:27 435.675 MHz FM
KITSAT 1 26 Oct 11:18:17 11:25:27 37° 108° (ESE) 11:32:38 435.175 FM
ZACube-1 26 Oct 11:26:20 11:30:36 82° 283° (WNW) 11:34:45 437.345 MHz
UKube-1 26 Oct 11:28:46 11:32:40 32° 291° (WNW) 11:36:32 145.840 MHz, 145.915 MHz
ISS 26 Oct 11:33:43 11:36:18 21° 133° (SE) 11:38:54 145.800 FM
SO-50 26 Oct 11:42:34 11:45:31 17° 109° (ESE) 11:48:31 436.795 FM
Sapphire 26 Oct 12:00:49 12:05:26 28° 49° (NE) 12:10:02 437.095 MHz 1200 baud AX-25 AFSK
Oscar 19 26 Oct 12:04:59 12:06:24 11° 58° (ENE) 12:07:48 437.125 CW, 437.150 USB
Oscar 11 26 Oct 12:10:28 12:12:26 13° 297° (WNW) 12:14:25 145.825 FM, Beacon 2401.500 USB
